www.pogodaiklimat.ru

Погода и климат >> Архив погоды >> Пакистан >> Хайдарабат


ПОГОДА в Хайдарабате

  • Прогноз погоды в Хайдарабате
  • Монитор погоды в Хайдарабате

АРХИВ ПОГОДЫ в Хайдарабате

Время (UTC), дата Ветер
(напр.,м/с)
 
Видим.   Явления Облачность Т
(С)
Тd
(С)
f
(%)
Тe
(С)
Тes
(С)
Комфортность P
(гПа)
Po
(гПа)
Тmin
(С)
Tmax
(С)
R
(мм)
R24
(мм)
S
(см)
00 14.06 СВ 3 4000 м ясно +30.0 +22.0 62 +39 +39 очень
душно
997.3 992.5
03 14.06 СВ 2 4000 м 3/0
[Ac trans]
+31.5 +22.0 57 +40 +45 очень
душно
999.9 995.1 +28.0
06 14.06 В 3 4000 м 4/0
[Ac trans]
+35.0 +23.7 52 +46 +58 опасность
перегрева
1000.4 995.7
09 14.06 СВ 4 4000 м 5/0
[Ac trans]
+36.0 +23.2 48 +46 +55 опасность
перегрева
998.8 994.1
12 14.06 С 5 4000 м 6/0
[Ac trans]
+37.0 +23.6 46 +47 +49 опасность
перегрева
996.7 992.0 +37.5
15 14.06 СВ 1 4000 м 6/0
[Ac trans]
+36.0 +24.0 50 +47 +47 опасность
перегрева
997.7 993.0
18 14.06 СВ 3 4000 м 5/0
[Ac trans]
+34.5 +23.9 54 +46 +46 опасность
перегрева
999.7 995.0
21 14.06 Ю 4 4000 м 4/0
[Ac trans]
+31.5 +24.4 66 +44 +44 опасность
перегрева
999.0 994.2
00 15.06 ЮЗ 5 4000 м 3/0
[Ac trans]
+30.0 +23.5 68 +41 +41 опасность
перегрева
998.8 994.0
03 15.06 В 3 4000 м ясно +33.0 +23.4 57 +44 +49 опасность
перегрева
1001.0 996.2 +27.5
06 15.06 ЮВ 5 4000 м пыльный позёмок 3/0
[Ac trans]
+36.0 +24.9 53 +49 +59 опасность
перегрева
1000.8 996.1
09 15.06 ЮВ 3 4000 м 4/0
[Ac trans]
+39.0 +23.5 41 +49 +61 опасность
перегрева
999.1 994.4
12 15.06 ЮВ 10 4000 м пыльный позёмок 3/0
[Ac trans]
+39.0 +23.5 41 +49 +49 опасность
перегрева
997.2 992.5 +38.8
15 15.06 ЮВ 8 4000 м 4/0
[Ac trans]
+36.0 +22.4 46 +45 +45 опасность
перегрева
998.3 993.6
18 15.06 Ю 2 4000 м ясно +33.0 +23.8 59 +45 +45 опасность
перегрева
999.7 994.9
21 15.06 Ю 3 4000 м ясно +30.5 +24.1 69 +42 +42 опасность
перегрева
999.5 994.7
00 16.06 Ю 2 4000 м ясно +29.0 +24.0 74 +40 +40 очень
душно
999.6 994.8
03 16.06 Ю 4 4000 м ясно +31.0 +23.9 66 +43 +47 опасность
перегрева
1001.6 996.8 +27.5
06 16.06 Ю 8 4000 м пыльный позёмок ясно +34.5 +23.1 52 +45 +48 опасность
перегрева
1001.1 996.4
09 16.06 Ю 6 4000 м пыльный позёмок 5/0
[Ac trans]
+37.0 +22.8 44 +46 +52 опасность
перегрева
1000.0 995.3
12 16.06 ЮЗ 10 4000 м 5/0
[Ac trans]
+36.5 +23.0 46 +46 +46 опасность
перегрева
999.2 994.5 +37.5
15 16.06 Ю 9 4000 м ясно +33.5 +22.7 53 +43 +43 опасность
перегрева
999.9 995.1
18 16.06 Ю 4 4000 м ясно +30.5 +24.9 72 +44 +44 опасность
перегрева
1001.9 997.1
21 16.06 Ю 7 4000 м ясно +29.0 +24.0 74 +40 +40 очень
душно
1001.2 996.4
00 17.06 штиль 0 4000 м ясно +28.0 +23.7 77 +38 +38 очень
душно
1001.1 996.2
03 17.06 ЮВ 3 4000 м мгла 4/4 300 м
[Sc]
+30.5 +24.1 69 +42 +45 опасность
перегрева
1002.1 997.3 +26.1
06 17.06 Ю 8 4000 м мгла 5/4 1050 м
[Sc Ac trans]
+35.5 +23.5 50 +46 +48 опасность
перегрева
1001.6 996.9
09 17.06 ЮВ 2 4000 м 6/4 1050 м
[Sc Ac trans]
+37.0 +22.8 44 +46 +56 опасность
перегрева
999.6 994.9
12 17.06 ЮВ 5 4000 м 6/4 1050 м
[Sc Ac trans]
+36.0 +24.0 50 +47 +49 опасность
перегрева
998.1 993.4 +37.5
15 17.06 ЮВ 8 4000 м ясно +33.0 +23.8 59 +45 +45 опасность
перегрева
998.5 993.7
18 17.06 Ю 2 4000 м ясно +31.0 +23.9 66 +43 +43 опасность
перегрева
999.2 994.4
21 17.06 Ю 1 4000 м ясно +30.0 +24.3 72 +42 +42 опасность
перегрева
998.1 993.3
00 18.06 Ю 2 4000 м ясно +29.0 +24.8 78 +41 +41 опасность
перегрева
996.9 992.0
03 18.06 Ю 3 4000 м ясно +30.5 +24.9 72 +44 +49 опасность
перегрева
998.2 993.4 +25.5
06 18.06 ЮЗ 2 4000 м 8/5 1050 м
[St Ac trans]
+35.0 +25.3 57 +49 +55 опасность
перегрева
998.1 993.4
09 18.06 штиль 0 4000 м 5/5 1050 м
[Sc]
+39.5 +25.0 44 +52 +65 опасность
перегрева
996.1 991.5
12 18.06 ЮЗ 6 4000 м 5/0
[Ac trans]
+39.5 +25.0 44 +52 +54 опасность
перегрева
994.2 989.6 +40.5
15 18.06 ЮЗ 4 4000 м 9/4 1050 м
[Sc As trans]
+34.5 +26.6 64 +52 +52 опасность
перегрева
996.7 996.7
18 18.06 ЮЗ 7 4000 м ясно +31.5 +26.7 76 +49 +49 опасность
перегрева
997.6 992.8
21 18.06 ЮЗ 1 4000 м ясно +30.0 +25.8 78 +45 +45 опасность
перегрева
997.6 992.8
00 19.06 ЮЗ 1 4000 м ясно +29.0 +26.2 85 +44 +44 опасность
перегрева
997.8 993.0
03 19.06 ЮЗ 3 4000 м ясно +31.0 +26.9 79 +48 +53 опасность
перегрева
999.7 994.8 +27.0
06 19.06 Ю 2 4000 м 3/0
[Ac trans]
+35.0 +25.3 57 +49 +65 опасность
перегрева
999.7 995.0
09 19.06 ЮЗ 3 4000 м ясно +38.0 +24.0 45 +49 +67 опасность
перегрева
998.1 993.4
12 19.06 Ю 4 4000 м ясно +39.0 +23.5 41 +49 +52 опасность
перегрева
996.5 991.8 +39.5
15 19.06 Ю 4 4000 м 4/0
[Ac trans]
+35.0 +24.5 55 +48 +48 опасность
перегрева
997.4 992.7
18 19.06 ЮЗ 6 4000 м 5/0
[Ac trans]
+32.0 +25.8 70 +47 +47 опасность
перегрева
1000.7 995.9
21 19.06 ЮЗ 2 4000 м 4/0
[Ac trans]
+30.5 +24.9 72 +44 +44 опасность
перегрева
999.8 995.1
00 20.06 ЮЗ 5 4000 м ясно +29.0 +25.5 81 +43 +43 опасность
перегрева
999.5 995.5
03 20.06 ЮЗ 6 4000 м ясно +30.5 +26.4 79 +47 +49 опасность
перегрева
1001.9 997.1 +27.0
06 20.06 ЮЗ 5 4000 м 4/4 1050 м
[Sc]
+35.0 +24.5 55 +48 +54 опасность
перегрева
1002.1 997.4
09 20.06 ЮЗ 4 4000 м 4/4 1050 м
[Sc]
+38.5 +22.9 41 +48 +56 опасность
перегрева
1000.5 995.8
12 20.06 ЮЗ 4 4000 м ясно +38.0 +24.0 45 +49 +53 опасность
перегрева
998.5 993.8 +39.3
15 20.06 ЮЗ 4 4000 м ясно +33.0 +24.6 61 +46 +46 опасность
перегрева
999.1 994.3
18 20.06 ЮЗ 6 4000 м ясно +31.0 +24.6 69 +44 +44 опасность
перегрева
1000.7 995.9
21 20.06 Ю 4 4000 м ясно +30.0 +25.1 75 +43 +43 опасность
перегрева
1000.5 995.7

 

Местоположение метеостанции Хайдарабат (Пакистан): широта 25.38 долгота 68.42 высота над уровнем моря 30 м.

В архиве по умолчанию представлена погода в Хайдарабате за последнюю неделю. Архивные данные за месяц целиком и за предыдущие месяцы, начиная с января 2011 года, Вы можете получить, выбрав интересующий диапазон дат из раскрывающегося списка и нажав кнопку "Ввод!".


*Определитесь, кто Вы:
робот инопланетянин человек

Внимание! Время в таблицах - всемирное. Для получения местного времени необходимо прибавить поправку, которая равна 5 ч.

Смотрите также архив погоды в соседних городах и на ближайших метеорологических станциях:

Погода в Сакранде (Пакистан) (32 км)
Погода в Мир Пур Кхас (Пакистан) (56 км)
Погода в Татте (Пакистан) (87 км)
Погода в Бадине (Пакистан) (96 км)
Погода в Навабшахе (Пакистан) (97 км)
Погода в Чоре (Пакистан) (137 км)
Погода в Карачи (Пакистан) (140 км)
Погода в Митхи (Пакистан) (154 км)
Погода в Пад Идан (Пакистан) (166 км)
Погода в Мохенджо-Даро (Пакистан) (218 км)

Пояснения к столбцам:

Ветер - указаны скорость ветра в м/с - средняя за 10 мин, порывы в срок и между сроками (в фигурных скобках) и направление, откуда дует ветер: С - северный, СВ - северо-восточный, В - восточный, ЮВ - юго-восточный, Ю - южный, ЮЗ - юго-западный, З - западный, СЗ - северо-западный.
Видимость - горизонтальная дальность видимости в метрах или километрах. При видимости от 1 до 10 км при отсутствии осадков обычно наблюдается дымка, при ухудшении видимости до 1 км и менее - туман. В сухую погоду видимость может ухудшаться дымом, пылью или мглою.
Явления - указаны атмосферные явления, наблюдавшиеся в срок или в последний час перед сроком; фигурными скобками обозначены явления, наблюдавшиеся между сроками (за 1-3 часа до срока); квадратными скобками обозначены град или гололедные отложения с указанием их диаметра в мм.
Облачность - указаны через наклонную черту общая и нижняя облачность в баллах и высота нижней границы облаков в метрах; квадратными скобками обозначены формы облаков: Ci - перистые, Cs - перисто-слоистые, Cc - перисто-кучевые, Ac - высококучевые, As - высокослоистые, Sc - слоисто-кучевые, Ns - слоисто-дождевые, Cu - кучевые, Cb - кучево-дождевые. Подробнее классификацию облаков см. в Атласе облаков (PDF).
T - Температура воздуха - температура, измеренная на высоте 2 м над землей.
Td - Температура точки росы - температура, при понижении до которой содержащийся в воздухе водяной пар достигнет насыщения.
f - Относительная влажность воздуха - влажноcть воздуха, измеренная на высоте 2 м над землей.
Te - Эффективная температура - температура, которую ощущает одетый по сезону человек в тени. Характеристика душности погоды. При расчете учитывается влияние влажности воздуха и скорости ветра на теплоощущения человека.
Tes - Эффективная температура на солнце - температура, которую ощущает человек, с поправкой на солнечный нагрев. Характеристика знойности погоды. Зависит от высоты солнца над горизонтом, облачности и скорости ветра. Ночью, в пасмурную погоду, а также при ветре 12 м/с и более поправка равна нулю.
P - Атмосферное давление - приведенное к уровню моря атмосферное давление.
Po - Атмосферное давление - измеренное на уровне метеостанции атмосферное давление.
Tmin - Минимальная температура - минимум температуры воздуха на высоте 2 м над землей.
Tmax - Максимальная температура - максимум температуры воздуха на высоте 2 м над землей.
R - Количество осадков - Количество выпавших осадков за период времени, мм. При наведении курсора мыши на число - период времени, за который выпало указанное количество осадков.
R24 - Количество осадков - Количество выпавших осадков за 24 часа, мм.
S - Снежный покров - Высота снежного покрова, см. При наведении курсора мыши на число - состояние снежного покрова и степень покрытия местности в баллах.